Canadian, TX

2:02 PM CST on December 05, 2019 (GMT -0600)
Hemphill County

Weather History for KHHF - October, 2019

Change the Weather History Date:

Tuesday, October 29, 2019

  Actual Average (KPPA) Record (KPPA)
Temperature  
Mean Temperature 28 °F -  
Max Temperature 35 °F 67 °F 91 °F (2016)
Min Temperature 21 °F 38 °F 21 °F (1980)
Degree Days  
Heating Degree Days 37    
Moisture  
Dew Point 24 °F    
Average Humidity 78    
Maximum Humidity 94    
Minimum Humidity 70    
Precipitation  
Precipitation 0.00 in - - ()
Sea Level Pressure  
Sea Level Pressure 30.14 in    
Wind  
Wind Speed 5 mph ()    
Max Wind Speed 14 mph    
Max Gust Speed 21 mph    
Visibility 10.0 miles    
Events      
Averages and records for this station are not official NWS values.
T = Trace of Precipitation, MM = Missing Value Source: Averaged Metar Reports

Daily Weather History Graph

Daily Weather History Graph

Search for Another Location

Airport or City:

Astronomy

Oct. 29, 2019 Rise Set
Actual Time 8:00 AM CDT 6:49 PM CDT
Civil Twilight 7:34 AM CDT 7:15 PM CDT
Nautical Twilight 7:04 AM CDT 7:45 PM CDT
Astronomical Twilight 6:34 AM CDT 8:15 PM CDT
Moon 9:34 AM CDT (10/29) 8:17 PM CDT (10/29)
Length of Visible Light 11h 40m
Length of Day
10h 48m
Waxing Crescent, 3% of the Moon is Illuminated
Oct 29
Waxing Crescent
Nov 4
First Quarter
Nov 12
Full
Nov 19
Last Quarter
Nov 26
New

Hourly Weather History & Observations

Time (CDT) Temp. Windchill Dew Point Humidity Pressure Visibility Wind Dir Wind Speed Gust Speed Precip Events Conditions
12:15 AM 30.2 °F 25.4 °F 21.6 °F 70% 30.17 in 10.0 mi NE 4.6 mph - N/A   Overcast
12:35 AM 30.0 °F 24.1 °F 21.4 °F 70% 30.18 in 10.0 mi NNE 5.8 mph - N/A   Mostly Cloudy
12:55 AM 28.4 °F - 21.2 °F 74% 30.18 in 10.0 mi Calm Calm - N/A   Clear
1:15 AM 28.2 °F - 21.6 °F 76% 30.18 in 10.0 mi Calm Calm - N/A   Clear
1:35 AM 27.0 °F - 21.2 °F 79% 30.18 in 10.0 mi Calm Calm - N/A   Clear
1:55 AM 26.8 °F 22.8 °F 21.2 °F 79% 30.18 in 10.0 mi East 3.5 mph - N/A   Clear
2:15 AM 26.6 °F 21.2 °F 21.4 °F 81% 30.17 in 10.0 mi NE 4.6 mph - N/A   Clear
2:35 AM 26.6 °F 21.2 °F 21.6 °F 81% 30.16 in 10.0 mi NE 4.6 mph - N/A   Clear
2:55 AM 25.5 °F - 21.2 °F 84% 30.16 in 10.0 mi Calm Calm - N/A   Clear
3:15 AM 24.8 °F - 21.2 °F 86% 30.16 in 10.0 mi Calm Calm - N/A   Clear
3:35 AM 25.7 °F - 21.6 °F 84% 30.16 in 10.0 mi Calm Calm - N/A   Clear
3:55 AM 25.3 °F 21.1 °F 21.2 °F 84% 30.15 in 10.0 mi ENE 3.5 mph - N/A   Clear
4:15 AM 25.5 °F 19.9 °F 21.7 °F 86% 30.13 in 10.0 mi ENE 4.6 mph - N/A   Clear
4:35 AM 24.8 °F 19.1 °F 21.2 °F 86% 30.13 in 10.0 mi East 4.6 mph - N/A   Clear
4:55 AM 24.4 °F 20.1 °F 21.2 °F 87% 30.12 in 10.0 mi East 3.5 mph - N/A   Clear
5:15 AM 24.4 °F - 21.2 °F 87% 30.13 in 10.0 mi Calm Calm - N/A   Clear
5:35 AM 24.4 °F 18.6 °F 21.7 °F 89% 30.13 in 10.0 mi East 4.6 mph - N/A   Clear
5:55 AM 24.1 °F - 21.4 °F 89% 30.13 in 10.0 mi Calm Calm - N/A   Clear
6:15 AM 22.6 °F - 20.5 °F 91% 30.14 in 10.0 mi Calm Calm - N/A   Clear
6:35 AM 21.7 °F - 19.9 °F 93% 30.14 in 10.0 mi Calm Calm - N/A   Clear
6:55 AM 21.9 °F 15.7 °F 20.5 °F 94% 30.12 in 10.0 mi North 4.6 mph - N/A   Scattered Clouds
7:15 AM 24.4 °F 20.1 °F 23.0 °F 94% 30.12 in 10.0 mi North 3.5 mph - N/A   Mostly Cloudy
7:35 AM 25.3 °F - 23.0 °F 91% 30.14 in 10.0 mi Calm Calm - N/A   Overcast
7:55 AM 25.7 °F - 23.0 °F 89% 30.14 in 10.0 mi Calm Calm - N/A   Overcast
8:15 AM 26.2 °F - 23.5 °F 90% 30.16 in 10.0 mi Calm Calm - N/A   Overcast
8:35 AM 26.6 °F - 23.7 °F 89% 30.16 in 10.0 mi Calm Calm - N/A   Overcast
8:55 AM 27.5 °F 23.6 °F 24.3 °F 88% 30.17 in 10.0 mi East 3.5 mph - N/A   Overcast
9:15 AM 28.2 °F 23.1 °F 24.8 °F 87% 30.18 in 10.0 mi East 4.6 mph - N/A   Overcast
9:35 AM 28.9 °F 22.8 °F 25.3 °F 86% 30.18 in 10.0 mi East 5.8 mph - N/A   Overcast
9:55 AM 29.3 °F 23.2 °F 25.3 °F 85% 30.18 in 10.0 mi East 5.8 mph - N/A   Overcast
10:15 AM 30.0 °F 22.4 °F 25.3 °F 83% 30.18 in 10.0 mi East 8.1 mph - N/A   Overcast
10:35 AM 30.0 °F 24.1 °F 25.2 °F 82% 30.18 in 10.0 mi East 5.8 mph - N/A   Overcast
10:55 AM 30.2 °F 22.6 °F 24.8 °F 80% 30.17 in 10.0 mi East 8.1 mph - N/A   Overcast
11:15 AM 30.7 °F 24.1 °F 25.0 °F 79% 30.17 in 10.0 mi East 6.9 mph - N/A   Overcast
11:35 AM 30.9 °F 23.5 °F 24.3 °F 76% 30.18 in 10.0 mi East 8.1 mph - N/A   Overcast
11:55 AM 30.9 °F 25.2 °F 24.6 °F 77% 30.18 in 10.0 mi NE 5.8 mph - N/A   Overcast
12:15 PM 31.5 °F 25.8 °F 24.8 °F 76% 30.18 in 10.0 mi NE 5.8 mph - N/A   Overcast
12:35 PM 32.2 °F 27.7 °F 25.3 °F 76% 30.17 in 10.0 mi ENE 4.6 mph - N/A   Overcast
12:55 PM 32.9 °F 26.7 °F 25.7 °F 75% 30.16 in 10.0 mi East 6.9 mph - N/A   Overcast
1:15 PM 33.1 °F 26.1 °F 25.5 °F 74% 30.16 in 10.0 mi East 8.1 mph - N/A   Overcast
1:35 PM 33.4 °F 25.9 °F 25.5 °F 73% 30.14 in 10.0 mi ENE 9.2 mph - N/A   Overcast
1:55 PM 34.2 °F 27.5 °F 25.9 °F 72% 30.13 in 10.0 mi East 8.1 mph - N/A   Overcast
2:15 PM 34.3 °F 27.7 °F 26.4 °F 73% 30.12 in 10.0 mi NE 8.1 mph - N/A   Overcast
2:35 PM 34.5 °F 27.9 °F 26.4 °F 72% 30.12 in 10.0 mi East 8.1 mph - N/A   Overcast
2:55 PM 34.7 °F 27.5 °F 26.4 °F 72% 30.10 in 10.0 mi ENE 9.2 mph - N/A   Overcast
3:15 PM 34.7 °F 28.8 °F 26.4 °F 72% 30.10 in 10.0 mi NE 6.9 mph - N/A   Overcast
3:35 PM 35.2 °F 29.5 °F 26.6 °F 71% 30.09 in 10.0 mi ENE 6.9 mph - N/A   Overcast
3:55 PM 35.1 °F 27.9 °F 26.6 °F 71% 30.09 in 10.0 mi NE 9.2 mph - N/A   Overcast
4:15 PM 35.4 °F 28.4 °F 26.6 °F 70% 30.09 in 10.0 mi NE 9.2 mph - N/A   Overcast
4:35 PM 35.4 °F 28.4 °F 26.4 °F 70% 30.09 in 10.0 mi NE 9.2 mph 16.1 mph N/A   Overcast
4:55 PM 35.4 °F 28.4 °F 26.6 °F 70% 30.09 in 10.0 mi NE 9.2 mph - N/A   Overcast
5:15 PM 34.7 °F 26.4 °F 26.6 °F 72% 30.09 in 10.0 mi NNE 11.5 mph 16.1 mph N/A   Overcast
5:35 PM 34.7 °F 26.9 °F 26.6 °F 72% 30.09 in 10.0 mi NE 10.4 mph - N/A   Overcast
5:55 PM 34.7 °F 26.9 °F 26.6 °F 72% 30.09 in 10.0 mi NE 10.4 mph 16.1 mph N/A   Overcast
6:15 PM 34.7 °F 26.9 °F 26.6 °F 72% 30.09 in 10.0 mi NE 10.4 mph 18.4 mph N/A   Overcast
6:35 PM 34.7 °F 26.9 °F 26.4 °F 72% 30.09 in 10.0 mi NE 10.4 mph - N/A   Overcast
6:55 PM 34.5 °F 25.7 °F 26.2 °F 72% 30.10 in 10.0 mi NE 12.7 mph 17.3 mph N/A   Overcast
7:15 PM 34.7 °F 28.1 °F 26.6 °F 72% 30.10 in 10.0 mi NE 8.1 mph - N/A   Overcast
7:35 PM 34.7 °F 26.4 °F 26.6 °F 72% 30.10 in 10.0 mi NE 11.5 mph 16.1 mph N/A   Overcast
7:55 PM 34.7 °F 26.4 °F 27.1 °F 74% 30.11 in 10.0 mi NE 11.5 mph - N/A   Overcast
8:15 PM 34.7 °F 26.4 °F 27.3 °F 74% 30.11 in 10.0 mi NE 11.5 mph - N/A   Overcast
8:35 PM 34.7 °F 25.5 °F 27.0 °F 73% 30.12 in 10.0 mi NNE 13.8 mph - N/A   Overcast
8:55 PM 34.7 °F 27.5 °F 27.0 °F 73% 30.13 in 10.0 mi NE 9.2 mph - N/A   Overcast
9:15 PM 34.7 °F 25.9 °F 26.4 °F 72% 30.13 in 10.0 mi NE 12.7 mph 17.3 mph N/A   Overcast
9:35 PM 34.7 °F 26.4 °F 26.4 °F 72% 30.13 in 10.0 mi ENE 11.5 mph 17.3 mph N/A   Overcast
9:55 PM 34.7 °F 27.5 °F 26.4 °F 72% 30.14 in 10.0 mi NE 9.2 mph - N/A   Overcast
10:15 PM 34.7 °F 25.9 °F 26.2 °F 71% 30.16 in 10.0 mi NE 12.7 mph - N/A   Overcast
10:35 PM 34.7 °F 25.5 °F 26.2 °F 71% 30.17 in 10.0 mi NE 13.8 mph - N/A   Overcast
10:55 PM 34.7 °F 26.9 °F 25.9 °F 70% 30.17 in 10.0 mi NE 10.4 mph - N/A   Overcast
11:15 PM 34.7 °F 25.9 °F 26.2 °F 71% 30.18 in 10.0 mi NE 12.7 mph 18.4 mph N/A   Overcast
11:35 PM 34.7 °F 25.9 °F 26.1 °F 71% 30.18 in 10.0 mi NE 12.7 mph 19.6 mph N/A   Overcast
11:55 PM 34.7 °F 25.5 °F 26.6 °F 72% 30.18 in 10.0 mi NE 13.8 mph 20.7 mph N/A   Overcast